EHI
5 2 0 0 0 0 0 0 0 1 2 6 12 15 17 14 9 5 4 14 38 47 39 38 42 37 27 18 9 5 3 2 1 0 0 0 0 0 0 0 0 0 0 0 0 0 0 0 0
3 1 0 0 0 0 0 0 0 0 2 5 11 15 18 18 13 9 6 17 40 47 39 40 45 39 29 20 13 7 4 3 1 1 0 0 0 0 0 0 0 0 0 0 0 0 0 0 0
1 0 0 0 0 0 0 0 1 1 2 6 11 14 15 16 14 9 7 21 41 43 36 42 49 45 34 26 19 12 6 3 2 1 0 0 0 0 0 0 0 0 0 0 0 0 0 0 0
0 0 0 0 0 0 1 1 2 3 5 9 12 12 13 17 16 10 8 22 38 36 30 39 51 49 39 31 24 14 7 3 2 1 0 0 0 0 0 0 0 0 0 0 0 0 0 0 0
0 0 0 0 0 0 1 3 5 7 8 11 14 14 15 22 25 17 9 18 30 29 24 31 42 42 34 27 21 12 6 3 1 0 0 0 0 0 0 0 0 0 0 0 0 0 0 0 0
0 0 0 0 0 0 2 6 9 10 11 12 15 15 15 22 26 18 10 12 18 21 19 20 24 25 22 18 13 8 4 1 0 0 0 0 0 0 0 0 0 0 0 0 0 0 0 0 0
0 0 0 0 0 0 3 7 10 11 12 13 14 14 15 18 21 18 13 10 10 13 14 12 12 11 11 9 7 5 3 1 0 0 0 0 0 0 0 0 0 0 0 0 0 0 0 0 0
0 0 0 0 0 1 3 6 7 10 13 14 13 14 16 22 28 27 21 15 9 8 8 8 7 6 5 5 5 5 3 1 0 0 0 0 0 0 0 0 0 0 0 0 0 0 0 0 0
0 0 0 0 0 1 2 3 4 8 13 16 17 18 20 32 43 41 31 22 13 7 5 5 4 4 3 3 4 4 3 1 1 1 0 0 0 0 1 1 1 1 0 0 0 0 0 0 0
0 0 0 0 1 2 2 1 2 6 9 13 19 22 27 39 51 50 41 30 19 9 4 2 1 1 2 2 2 1 1 1 2 1 0 0 0 0 1 2 2 1 0 0 0 0 0 0 0
0 0 0 0 1 4 5 2 1 3 4 7 15 23 30 40 48 49 45 36 25 16 8 3 1 1 1 1 1 0 0 1 1 1 0 0 0 0 1 1 2 1 0 0 0 0 0 0 0
0 0 0 0 1 5 6 5 3 2 1 3 10 18 27 36 42 46 46 41 33 27 20 12 7 4 2 2 1 0 0 0 0 0 0 0 0 0 0 0 0 0 0 0 0 0 0 0 0
0 0 0 0 1 4 7 8 6 3 2 3 7 12 20 31 40 46 47 44 40 37 32 22 14 9 6 3 1 1 1 0 0 0 0 0 0 0 0 0 0 0 0 0 0 0 0 0 0
0 0 0 0 0 2 5 8 7 6 5 4 5 8 16 29 41 45 45 43 41 39 34 25 16 12 8 3 1 2 1 1 1 0 0 0 0 0 0 0 0 0 0 0 0 0 0 0 0
0 0 0 0 0 1 3 4 7 8 7 5 4 8 17 28 35 39 39 40 41 40 32 21 13 9 5 2 1 1 1 0 0 0 0 0 0 0 0 0 0 0 0 0 0 0 0 0 0
0 0 0 0 0 0 1 1 5 8 9 6 5 10 18 25 29 31 34 37 39 39 31 18 10 5 3 2 1 0 0 0 0 0 0 0 0 0 0 0 0 0 0 0 0 0 0 0 0
0 0 0 0 0 0 0 1 3 8 10 7 7 12 19 23 24 26 29 32 34 33 26 16 8 3 1 1 0 0 0 0 0 0 0 0 0 0 0 0 0 0 0 0 0 0 0 0 0
0 0 0 0 0 0 0 1 4 7 9 7 8 12 17 18 18 20 25 28 27 24 19 12 6 2 0 0 0 0 0 0 0 0 0 0 0 0 0 0 0 0 0 0 0 0 0 0 0
0 0 0 0 0 0 0 1 3 5 6 6 6 8 11 12 11 16 22 22 19 16 13 8 4 1 0 0 0 0 0 0 0 0 0 0 0 0 0 0 0 0 0 0 0 0 0 0 0
0 0 0 0 0 0 0 1 2 4 5 5 5 5 7 8 10 14 17 16 13 11 8 5 2 0 0 0 0 0 0 0 0 0 0 0 0 0 0 0 0 0 0 0 0 0 0 0 0
0 0 0 0 0 0 0 1 2 3 6 7 5 4 5 7 10 13 13 9 7 7 6 4 1 0 0 0 0 0 0 0 0 0 0 0 0 0 0 0 0 0 0 0 0 0 0 0 0
0 0 0 0 0 0 0 0 1 2 5 7 7 6 4 5 8 10 8 5 3 5 5 4 2 0 0 0 0 0 0 0 0 0 0 0 0 0 0 0 0 0 0 0 0 0 0 0 0
0 0 0 0 0 0 0 0 0 1 2 5 8 8 6 4 4 6 5 3 2 3 5 5 3 2 1 0 0 0 0 0 0 0 0 0 0 0 0 0 0 0 0 0 0 0 0 0 0
0 0 0 0 0 0 0 0 0 0 1 3 6 9 8 7 5 6 5 3 2 4 7 8 7 6 4 2 1 0 0 0 0 0 0 0 0 0 0 0 0 0 0 0 0 0 0 0 0
0 0 0 0 0 0 0 0 0 0 1 3 4 6 7 8 8 7 6 4 5 8 11 13 11 9 6 4 2 1 0 0 0 0 0 0 0 0 0 0 0 0 0 0 0 0 0 0 0
0 0 0 0 0 0 0 0 0 0 1 2 2 3 4 7 8 7 5 5 7 11 15 16 13 10 9 7 4 2 0 0 0 0 0 0 0 0 0 0 0 0 0 0 0 0 0 0 0
0 0 0 0 0 0 0 0 0 0 1 1 1 1 2 4 5 5 3 4 7 13 15 14 12 12 11 8 3 1 0 0 0 0 0 0 0 0 0 0 0 0 0 0 0 0 0 0 0
0 0 0 0 0 0 0 0 0 0 0 1 0 0 1 2 3 4 3 3 6 11 12 13 14 13 9 5 1 0 0 0 0 0 0 0 0 0 0 0 0 0 0 0 0 0 0 0 0
0 0 0 0 0 0 0 0 0 0 0 0 0 0 0 1 3 4 4 3 5 9 12 13 13 9 5 1 0 0 0 0 0 0 0 0 0 0 0 0 0 0 0 0 0 0 0 0 0
0 0 0 0 0 0 0 0 0 0 0 0 0 0 0 1 2 3 3 2 4 10 13 12 11 7 2 0 0 0 0 0 0 0 0 0 0 0 0 0 0 0 0 0 0 0 0 0 0
Wind_Speed
8 5 2 0 1 1 3 3 2 4 5 6 3 3 5 3 4 5 7 15 18 15 12 15 16 17 17 16 16 16 15 15 15 15 14 14 13 13 12 12 12 11 11 11 10 10 10 9 9
6 5 2 1 0 1 4 3 4 3 2 6 7 0 2 5 8 12 10 16 18 15 11 13 17 17 16 16 15 15 15 15 14 14 14 13 12 12 11 11 10 10 10 9 9 9 8 8 8
6 5 1 1 2 3 4 4 5 2 2 4 6 3 2 7 11 7 11 18 15 13 10 14 18 17 17 16 15 15 15 14 14 13 13 12 11 11 10 10 9 9 9 8 8 8 7 6 6
3 2 1 1 6 6 6 6 4 2 5 9 6 3 3 5 6 13 18 16 15 11 10 13 18 18 17 16 15 15 14 14 13 13 12 11 10 10 9 9 8 8 8 7 7 6 6 5 4
2 3 0 3 6 5 4 5 3 3 4 7 7 3 5 6 18 19 17 16 15 11 8 11 17 17 17 16 15 15 14 13 13 12 11 10 9 8 8 8 7 7 6 6 6 5 5 5 3
1 2 0 4 6 5 1 3 6 8 6 6 5 4 3 10 17 16 15 13 13 12 9 10 16 17 16 16 15 14 13 13 12 11 10 9 8 7 7 7 7 6 6 6 5 5 5 4 4
2 1 2 4 5 4 4 5 7 10 10 6 3 1 2 9 13 14 14 12 11 11 10 7 8 11 14 15 14 14 13 11 10 9 8 7 7 6 6 6 6 6 6 6 6 5 5 5 5
4 2 4 4 5 4 2 5 7 9 7 5 4 2 3 6 11 13 13 11 10 9 8 7 6 5 6 7 12 12 11 10 9 8 7 6 5 5 6 5 6 6 6 6 6 6 6 6 6
2 1 4 5 3 2 3 7 6 6 8 5 4 3 4 8 12 14 12 10 9 8 6 7 7 5 5 5 7 8 9 8 7 5 4 2 0 1 2 4 6 6 6 6 6 6 6 6 6
4 3 7 5 2 2 6 8 7 7 8 5 4 5 6 9 11 13 14 12 10 9 7 5 6 6 5 5 4 2 3 3 3 2 2 2 1 1 1 1 2 3 4 4 5 5 4 4 2
5 7 6 4 1 6 8 8 6 10 5 8 10 10 9 8 7 10 10 11 10 9 7 6 7 6 5 4 3 2 2 2 3 4 4 3 3 3 2 1 1 1 1 1 1 1 1 1 1
4 5 3 1 2 7 8 8 6 5 8 10 9 9 9 10 9 9 10 10 9 10 8 7 7 6 5 5 4 3 3 3 3 4 5 4 3 3 2 1 1 1 0 0 0 0 1 1 2
1 2 1 4 8 10 12 9 8 3 4 5 5 4 7 8 8 7 8 9 9 9 8 7 8 7 6 5 4 5 4 4 4 4 4 5 3 3 3 2 2 1 1 0 0 0 0 1 1
3 1 1 4 7 5 10 8 5 3 3 3 2 2 3 6 6 7 9 10 9 8 7 7 7 7 6 5 5 4 4 4 4 4 4 5 3 3 3 3 3 2 1 1 0 1 1 1 1
3 4 4 3 5 4 8 6 3 5 4 4 3 3 3 5 5 7 9 10 11 9 7 7 7 6 7 6 6 5 4 5 4 3 4 4 4 4 3 3 3 3 3 2 2 3 3 3 2
4 4 4 3 3 2 6 3 3 5 5 5 4 2 3 3 3 5 8 9 9 9 8 6 7 6 6 6 5 4 4 5 4 3 3 4 5 5 4 3 3 3 3 3 3 3 3 3 3
4 2 3 4 2 2 5 3 4 6 6 5 4 3 3 3 4 6 8 9 9 9 8 6 7 6 6 6 5 5 4 4 3 3 3 4 4 5 4 3 3 4 4 4 3 3 2 2 3
5 2 2 3 1 3 3 3 4 5 6 4 3 4 6 7 7 8 9 9 8 8 8 8 7 6 5 4 4 4 3 2 2 3 3 4 3 4 4 3 4 4 4 4 3 3 3 2 3
5 3 1 2 1 2 2 3 5 6 4 4 4 5 7 7 5 6 8 9 8 8 8 8 7 5 4 3 3 3 2 2 2 2 4 4 4 4 4 3 4 4 4 3 4 3 4 3 3
4 2 1 1 0 2 2 2 4 6 7 6 7 7 8 7 7 9 8 7 8 8 8 8 7 6 5 3 3 3 3 2 2 2 3 4 4 4 4 4 3 3 3 5 5 4 3 3 3
3 3 4 4 3 4 2 2 1 2 3 5 6 6 7 11 11 11 10 8 9 9 9 9 8 7 6 5 3 2 3 3 2 1 1 2 3 4 4 4 3 3 3 2 3 3 3 2 3
1 3 5 5 4 2 2 2 4 2 3 6 7 7 7 9 10 10 10 9 10 10 9 8 7 7 6 5 4 4 3 2 2 2 2 2 2 3 4 4 4 3 2 2 1 2 2 2 2
4 3 4 5 5 3 3 1 6 1 4 6 8 9 9 10 12 12 11 11 10 10 9 8 7 7 6 6 6 5 4 3 2 2 2 1 1 1 3 4 4 3 2 2 1 1 1 1 1
9 6 5 5 5 4 2 0 6 4 6 6 8 10 11 11 12 11 10 9 8 9 8 8 8 7 7 7 7 7 7 5 4 3 2 1 1 0 2 4 4 3 2 2 1 1 0 0 1
4 5 5 7 6 3 3 1 8 8 7 9 11 11 11 12 11 11 11 10 10 11 10 9 10 8 8 8 7 7 7 6 5 4 3 2 1 1 2 3 4 3 3 3 2 1 1 1 1
2 7 6 2 3 3 2 4 9 8 6 8 10 11 12 12 12 13 14 13 12 12 12 11 11 9 8 8 7 6 7 5 4 4 4 4 3 3 3 4 4 4 3 3 3 2 2 2 2
1 2 6 7 2 1 3 6 8 3 3 7 9 10 12 13 14 14 14 13 12 12 12 13 12 9 9 8 7 7 7 6 6 5 4 3 3 3 4 4 4 4 4 4 3 3 3 3 3
3 4 6 5 4 2 3 4 6 5 6 8 11 12 13 13 13 14 13 13 12 12 10 10 11 11 9 9 8 7 7 7 6 5 5 5 4 4 4 4 4 4 4 4 4 3 4 4 4
2 3 4 4 5 6 3 8 9 11 10 11 13 14 14 14 14 14 13 12 11 9 10 10 10 9 8 9 7 7 7 7 6 6 6 6 5 5 5 5 4 4 4 4 4 5 5 5 5
2 3 5 4 2 3 4 9 7 11 11 11 13 13 12 13 13 13 11 10 9 10 11 11 11 10 10 9 8 8 7 7 7 6 7 6 6 6 6 5 5 5 5 5 5 6 6 6 6
Wind_Direction
167 155 159 48 29 22 268 240 243 306 325 333 341 160 150 136 149 139 122 135 135 137 139 137 136 135 134 133 131 130 129 128 127 126 125 124 123 122 121 120 119 115 112 110 107 104 101 99 96
153 166 163 48 73 311 273 257 269 278 305 350 332 43 102 72 85 108 119 136 135 134 135 135 134 134 134 134 134 133 132 131 131 131 131 130 129 128 127 125 123 121 118 116 113 110 107 104 99
173 190 142 134 226 207 243 246 264 281 91 19 324 311 61 106 115 113 133 138 132 131 133 138 135 133 133 133 134 135 134 134 135 134 134 135 134 133 131 129 127 126 124 122 119 117 114 111 105
172 136 32 241 252 245 239 239 238 300 44 30 349 330 64 103 114 126 136 135 129 129 132 138 135 133 132 132 133 134 135 136 136 136 136 136 136 135 135 135 134 133 132 131 131 129 128 125 118
125 109 157 274 266 268 247 224 198 78 70 46 9 17 44 72 113 128 134 133 131 130 131 136 135 135 135 135 134 135 136 137 136 137 138 139 139 140 140 141 142 143 143 142 142 144 145 148 145
94 115 119 281 287 313 322 132 107 93 98 86 47 11 50 115 124 136 136 132 134 135 131 133 137 138 138 139 139 138 139 139 140 142 144 146 148 150 154 157 159 159 159 160 162 165 167 168 180
156 156 251 279 301 335 27 75 89 101 99 101 117 15 96 132 136 137 131 131 134 136 133 131 136 139 142 142 142 143 143 144 145 146 150 154 160 166 174 177 179 180 178 179 183 186 192 195 202
174 101 305 299 302 322 62 81 91 101 108 136 132 136 175 156 135 129 128 127 129 133 135 132 130 132 137 142 146 146 145 147 150 152 161 170 180 189 196 195 198 200 197 194 199 207 210 213 218
159 83 268 263 270 289 107 102 86 81 110 123 132 146 163 132 129 132 131 131 133 136 139 141 141 143 139 142 146 145 148 150 149 148 156 145 115 222 215 212 210 213 210 207 209 218 222 224 229
146 186 242 233 227 120 103 110 124 108 101 95 115 133 140 128 132 139 144 146 145 147 155 151 142 144 142 146 128 130 129 118 108 94 86 74 62 34 77 220 215 218 221 222 220 225 233 235 233
192 212 241 261 211 123 111 105 116 125 127 161 167 162 150 133 140 143 146 150 149 149 152 152 142 142 138 125 125 108 93 92 87 82 80 73 60 41 38 26 352 329 282 261 264 245 223 220 216
229 251 234 233 115 107 111 122 115 132 181 178 171 167 160 156 159 151 146 145 140 135 136 133 134 130 127 125 122 116 110 101 92 80 78 77 64 47 30 20 3 1 1 58 35 1 246 236 233
277 275 86 105 89 105 108 114 121 133 159 160 151 161 165 162 141 141 139 132 133 133 132 125 126 124 119 113 119 114 113 107 100 87 79 83 74 53 29 15 12 1 8 54 42 16 348 316 294
292 317 41 85 93 97 111 111 100 153 168 174 186 201 170 139 129 141 139 140 138 136 130 124 124 124 118 113 112 111 114 112 103 96 93 87 82 64 41 24 18 11 1 1 59 57 49 11 343
342 359 350 52 86 121 112 83 118 164 173 185 198 208 150 136 148 155 153 145 142 139 130 126 124 117 113 112 115 116 117 114 111 111 99 90 80 67 56 38 24 7 8 27 41 41 43 33 16
4 8 333 331 84 142 104 122 188 168 173 204 206 185 127 132 156 153 150 145 142 137 134 134 127 118 116 116 117 119 120 119 123 120 103 93 85 76 64 47 23 12 28 37 50 45 41 21 5
4 320 293 316 41 78 94 172 218 184 191 200 178 151 141 145 173 172 162 155 147 146 140 129 125 126 124 121 117 115 117 122 133 130 116 104 94 83 77 57 31 31 36 32 33 41 44 18 350
253 241 270 284 317 82 100 180 200 193 189 187 170 161 170 186 185 174 163 153 148 145 137 134 130 131 125 112 101 97 99 119 138 140 134 123 106 91 84 67 45 42 40 27 26 27 23 16 345
213 180 210 253 186 86 131 178 194 197 203 204 198 194 178 180 173 162 156 150 146 142 140 141 140 146 136 121 118 121 136 153 156 163 148 138 121 103 92 80 56 49 49 34 26 27 21 5 357
179 136 137 313 140 105 133 184 187 195 204 200 196 194 180 169 170 164 162 164 160 158 156 154 157 159 156 147 149 155 152 160 161 154 147 151 137 129 121 109 90 66 55 40 38 43 33 1 17
116 157 179 180 106 51 81 356 250 220 209 210 204 188 176 175 177 174 174 178 167 168 171 169 170 166 165 153 127 97 78 74 79 108 154 185 163 148 137 134 121 93 82 64 53 62 66 20 353
169 197 155 139 111 11 42 315 288 212 218 208 200 192 189 182 181 183 182 178 178 181 177 171 172 171 169 155 146 145 145 150 176 175 184 203 186 171 164 153 140 124 108 94 75 86 82 74 10
167 128 84 95 106 67 19 24 293 199 208 214 203 196 194 188 187 189 187 187 188 184 179 177 174 177 174 162 154 142 139 150 149 137 146 183 262 214 181 162 149 141 130 134 111 80 70 99 125
127 85 63 54 67 41 314 54 284 240 213 201 196 194 191 189 191 193 191 188 190 186 183 180 176 182 176 168 162 157 156 157 148 152 167 210 299 298 175 161 155 158 161 169 173 161 151 205 224
101 84 30 8 19 286 282 267 256 244 215 196 192 194 193 190 190 191 191 191 193 190 188 184 180 184 179 171 170 169 166 164 167 175 181 181 187 185 185 164 170 179 191 197 191 196 236 240 243
195 132 144 190 222 271 300 261 264 261 223 197 188 186 188 192 194 195 197 195 196 193 190 186 184 184 179 175 177 174 166 159 165 170 169 177 187 198 192 178 184 196 203 206 197 208 231 223 236
143 158 160 132 126 95 282 290 302 295 182 183 185 184 192 196 197 199 199 198 196 192 190 187 183 181 180 179 174 172 169 165 169 173 173 178 189 189 178 182 189 204 211 217 212 221 238 241 243
151 145 87 98 142 205 270 264 246 240 209 190 187 193 198 196 198 199 199 199 197 192 188 182 179 179 179 176 175 178 180 179 178 177 185 191 197 192 187 196 202 214 223 227 219 228 238 240 248
28 52 91 112 151 154 219 256 223 211 209 197 198 198 197 197 197 198 199 197 191 181 175 175 175 172 175 178 178 174 183 186 184 188 200 202 205 204 202 208 214 222 230 233 226 232 235 237 247
136 144 137 139 229 172 186 262 249 202 209 200 201 202 200 199 198 196 191 184 178 177 176 176 176 178 181 178 176 179 184 184 187 198 207 206 209 211 209 210 214 224 229 228 226 234 235 230 237